Belmar-Farmingdale, NJ

11:33 PM EST on November 19, 2019 (GMT -0500)
Allaire

Weather History for KBLM - September, 2019

Change the Weather History Date:

Friday, September 27, 2019

  Actual Average Record
Temperature  
Mean Temperature 63 °F -  
Max Temperature 72 °F 67 °F 89 °F (1998)
Min Temperature 54 °F 52 °F 42 °F (2000)
Degree Days  
Heating Degree Days 2    
Growing Degree Days 13 (Base 50)    
Moisture  
Dew Point 54 °F    
Average Humidity 76    
Maximum Humidity 100    
Minimum Humidity 44    
Precipitation  
Precipitation 0.00 in - - ()
Sea Level Pressure  
Sea Level Pressure 30.11 in    
Wind  
Wind Speed 4 mph ()    
Max Wind Speed 10 mph    
Max Gust Speed -    
Visibility 10.0 miles    
Events      
Averages and records for this station are not official NWS values.
T = Trace of Precipitation, MM = Missing Value Source: Averaged Metar Reports

Daily Weather History Graph

Daily Weather History Graph

Search for Another Location

Airport or City:

Astronomy

Sep. 27, 2019 Rise Set
Actual Time 6:48 AM EDT 6:45 PM EDT
Civil Twilight 6:21 AM EDT 7:12 PM EDT
Nautical Twilight 5:49 AM EDT 7:44 PM EDT
Astronomical Twilight 5:17 AM EDT 8:16 PM EDT
Moon 5:06 AM EDT (9/27) 6:34 PM EDT (9/27)
Length of Visible Light 12h 51m
Length of Day
11h 57m
Waning Crescent, 2% of the Moon is Illuminated
Sep 27
Waning Crescent
Sep 28
New
Oct 5
First Quarter
Oct 13
Full
Oct 21
Last Quarter

Hourly Weather History & Observations

Time (EDT) Temp. Dew Point Humidity Pressure Visibility Wind Dir Wind Speed Gust Speed Precip Events Conditions
12:56 AM 59.0 °F 57.9 °F 96% 29.98 in 10.0 mi NW 4.6 mph - N/A   Clear
1:56 AM 57.9 °F 57.0 °F 97% 29.98 in 10.0 mi Calm Calm - N/A   Clear
2:56 AM 57.0 °F 55.9 °F 96% 30.00 in 10.0 mi WNW 4.6 mph - N/A   Clear
3:56 AM 55.9 °F 55.0 °F 97% 30.02 in 10.0 mi West 3.5 mph - N/A   Clear
4:56 AM 55.0 °F 54.0 °F 96% 30.04 in 10.0 mi WNW 4.6 mph - N/A   Clear
5:56 AM 54.0 °F 53.1 °F 97% 30.06 in 10.0 mi WNW 4.6 mph - N/A   Clear
6:56 AM 54.0 °F 54.0 °F 100% 30.09 in 10.0 mi WNW 3.5 mph - N/A   Clear
7:56 AM 57.0 °F 55.0 °F 93% 30.12 in 10.0 mi NW 4.6 mph - N/A   Clear
8:56 AM 64.0 °F 57.9 °F 80% 30.14 in 10.0 mi North 4.6 mph - N/A   Clear
9:56 AM 66.9 °F 55.0 °F 66% 30.17 in 10.0 mi NE 8.1 mph - N/A   Clear
10:56 AM 69.1 °F 52.0 °F 54% 30.16 in 10.0 mi Variable 6.9 mph - N/A   Clear
11:56 AM 70.0 °F 48.9 °F 47% 30.17 in 10.0 mi Variable 4.6 mph - N/A   Clear
12:56 PM 71.1 °F 48.0 °F 44% 30.16 in 10.0 mi Variable 6.9 mph - N/A   Clear
1:56 PM 72.0 °F 48.9 °F 44% 30.14 in 10.0 mi ESE 10.4 mph - N/A   Clear
2:56 PM 71.1 °F 50.0 °F 47% 30.13 in 10.0 mi SE 10.4 mph - N/A   Clear
3:56 PM 71.1 °F 50.0 °F 47% 30.12 in 10.0 mi SSE 8.1 mph - N/A   Clear
4:56 PM 69.1 °F 54.0 °F 58% 30.13 in 10.0 mi SSE 6.9 mph - N/A   Clear
5:56 PM 66.9 °F 55.9 °F 68% 30.14 in 10.0 mi SE 6.9 mph - N/A   Clear
6:56 PM 64.9 °F 57.0 °F 75% 30.14 in 10.0 mi SE 4.6 mph - N/A   Clear
7:56 PM 64.0 °F 57.9 °F 80% 30.14 in 10.0 mi SSE 3.5 mph - N/A   Clear
8:56 PM 62.1 °F 57.9 °F 86% 30.16 in 10.0 mi Calm Calm - N/A   Clear
9:56 PM 62.1 °F 57.9 °F 86% 30.15 in 10.0 mi South 3.5 mph - N/A   Clear
10:56 PM 62.1 °F 57.0 °F 84% 30.16 in 10.0 mi SSW 3.5 mph - N/A   Clear
11:56 PM 61.0 °F 57.0 °F 87% 30.16 in 10.0 mi Calm Calm - N/A   Clear